Regional Weather Roundup
Issued by NWS

Home | Current Version | Previous Version | Text Only | Print | Product List | Glossary Off
Versions: 1 2 3 4 5 6 7 8 9 10 11 12 13 14 15 16 17 18 19 20 21 22 23 24 25 26 27 28 29 30 31 32 33 34 35 36 37 38 39 40 41 42 43 44 45 46 47 48 49 50

000
ASUS45 KTFX 290910
RWRMT
MONTANA REGIONAL WEATHER ROUNDUP
NATIONAL WEATHER SERVICE GREAT FALLS MT
300 AM MDT MON AUG 29 2016

NOTE: "FAIR" INDICATES FEW OR NO CLOUDS BELOW 12000 FEET WITH NO
SIGNIFICANT WEATHER AND/OR OBSTRUCTIONS TO VISIBILITY.

MTZ001>007-043-291000-
WEST OF THE DIVIDE

CITY           SKY/WX    TMP DP  RH WIND       PRES   REMARKS
KALISPELL      CLEAR     47  40  76 E9        30.17R
MISSOULA       CLEAR     55  37  50 CALM      30.20R
BUTTE          CLOUDY    49  31  49 CALM      30.34R
MULLAN PASS    CLEAR     57  33  40 S6        30.29R
DEER LODGE       N/A     46  37  71 CALM      30.31R
EUREKA           N/A     55  39  54 CALM      30.16S
HAMILTON         N/A     57  39  51 S6        30.21S
LIBBY            N/A     48  37  66 CALM      30.18R
RONAN            N/A     48  40  74 CALM      30.19S
$$

MTZ008-052>055-291000-
SOUTHWEST MONTANA

CITY           SKY/WX    TMP DP  RH WIND       PRES   REMARKS
BOZEMAN        CLEAR     52  42  69 CALM      30.28R
DILLON         PTCLDY    51  31  46 SE6       30.29R
W YELLOWSTONE  CLOUDY    39  28  65 S7        30.40R
ENNIS          CLEAR     50  32  50 CALM      30.35S
THREE FORKS      N/A     47  14  26 CALM      30.23S
TWIN BRIDGES     N/A     54  35  48 NE3       30.24R
$$

MTZ009-010-012-014-046-048-049-054-291000-
EAST SLOPES AND CENTRAL MONTANA

CITY           SKY/WX    TMP DP  RH WIND       PRES   REMARKS
CUT BANK       MOCLDY    50  41  71 E7        30.24S
GREAT FALLS    CLEAR     51  43  74 CALM      30.24S
MALMSTROM AFB  CLEAR     49  44  83 MISG      30.23F
HELENA         CLEAR     58  42  55 S3        30.25R
CHOTEAU          N/A     54  43  66 SE5       30.26S
CONRAD           N/A     45  43  93 MISG      30.24S
$$

MTZ011-013-016-021-045-047-050-051-291000-
NORTH CENTRAL MONTANA

CITY           SKY/WX    TMP DP  RH WIND       PRES   REMARKS
HAVRE          PTCLDY    54  45  71 E13       30.23R
LEWISTOWN      CLEAR     58  45  62 SE9       30.28R
N BAR RANCH      N/A     52  43  71 W6        30.33R
CHINOOK          N/A     52  46  82 E5        30.24S
$$

MTZ017>020-022>027-061-062-291000-
NORTHEAST MONTANA

CITY           SKY/WX    TMP DP  RH WIND       PRES   REMARKS
GLASGOW        CLEAR     55  43  63 CALM      30.24R
JORDAN           N/A     61  49  64 NE8       30.23R
SIDNEY         CLOUDY    61  48  62 N9        30.22R
WOLF POINT     CLEAR     59  46  62 NE8       30.24R
POPLAR           N/A     54  46  76 SE3       30.25R
$$

MTZ028>42-056>058-291000-
SOUTHCENTRAL AND SOUTHEAST MONTANA

CITY           SKY/WX    TMP DP  RH WIND       PRES   REMARKS
BAKER          CLOUDY    67  48  50 NE18G24   30.19R
BILLINGS       PTCLDY    65  45  48 N10       30.23R
LIVINGSTON     CLEAR     57  42  57 E3        30.29R
MILES CITY     CLOUDY    66  48  52 NE8       30.18R
EKALAKA          N/A     67  46  46 NE10      30.17R
FORSYTH          N/A     66  48  52 NE3       30.19S
LAUREL           N/A     64  42  44 NW5       30.21R
ROUNDUP          N/A     62  45  53 NW5       30.16R
$$

REGIONAL REPORTS...DAKOTAS

CITY           SKY/WX    TMP DP  RH WIND       PRES   REMARKS
WILLISTON      CLOUDY    58  45  62 N13       30.22R
MINOT          CLOUDY    59  52  77 NW10      30.15R
DICKINSON      CLOUDY    65  49  56 NE16      30.15R
CROSBY           N/A     48  46  93 NW8       30.24R
WATFORD CITY     N/A     59  48  67 N10       30.22R
BISMARCK       CLOUDY    69  54  58 N7        30.11R
GRAND FORKS    CLOUDY    66  62  87 S5        30.00S
FARGO          CLOUDY    73  69  87 SE10      30.00R
BUFFALO SD       N/A     67  52  58 NE16      30.10R
RAPID CITY     CLEAR     63  47  55 NW10      30.11R
$$

REGIONAL REPORTS...WYOMING/IDAHO/WASHINGTON

CITY           SKY/WX    TMP DP  RH WIND       PRES   REMARKS
GILLETTE       CLEAR     50  41  71 CALM      30.20R
SHERIDAN       CLOUDY    59  48  67 CALM      30.21R
BUFFALO WY     CLEAR     68  34  28 NW5       30.27R
CODY           CLEAR     59  39  47 CALM      30.29S
YELLOWSTONE LA   N/A     39  33  79 NW3       30.49R
IDAHO FALLS    CLEAR     50  40  68 N5        30.24R
SALMON         CLEAR     52  37  58 CALM      30.23S
BOISE          PTCLDY    70  40  33 SE12      30.06R
SPOKANE        PTCLDY    63  34  33 CALM      30.09F
$$

REGIONAL REPORTS...ALBERTA

CITY           SKY/WX    TMP DP  RH WIND       PRES   REMARKS
EDMONTON       PTCLDY    37  36  93 CALM      30.21F
CALGARY        PTCLDY    48  43  81 S10       30.20F
LETHBRIDGE     PTCLDY    43  41  93 VRB5G18   30.22F
MEDICINE HAT   CLEAR     48  45  87 E6        30.23F
WATERTON GATE    N/A     37  36  93 W3          N/A
CARDSTON         N/A     45  41  87 W1          N/A
MILK RIVER       N/A     45  41  87 W2          N/A
ONEFOUR          N/A     43  39  87 E8          N/A
$$

REGIONAL REPORTS...SASKATCHEWAN

CITY           SKY/WX    TMP DP  RH WIND       PRES   REMARKS
SWIFT CURRENT  CLEAR     43  43 100 S2        30.27R
REGINA         PTCLDY    43  43 100 NW2       30.23R
SASKATOON      CLEAR     37  37 100 SW9       30.24R WCI  31
CYPRESS HILLS    N/A     45  37  76 NE5         N/A
VAL MARIE        N/A     43  39  87 NE2         N/A
ROCKGLEN         N/A     46  43  87 N9          N/A
ASSINIBOIA       N/A     37  37 100 S2          N/A
$$



USA.gov is the U.S. government's official web portal to all federal, state and local government web resources and services.